Regional Weather Roundup
Issued by NWS

Home | Current Version | Previous Version | Graphics & Text | Print | Product List | Glossary On
Versions: 1 2 3 4 5 6 7 8 9 10 11 12 13 14 15 16 17 18 19 20 21 22 23 24 25 26 27 28 29 30 31 32 33 34 35 36 37 38 39 40 41 42 43 44 45 46 47 48 49 50
000
ASUS43 KOAX 031410
RWRNE

WEATHER ROUNDUP FOR NEBRASKA
NATIONAL WEATHER SERVICE OMAHA NE
900 AM CDT TUE MAY 03 2016

NOTES: SATELLITE DATA IS BEING USED TO AUGMENT CLOUD COVER ABOVE
       12000 FEET.
       "FAIR" INDICATES FEW OR NO CLOUDS BELOW 12,000 FEET WITH NO
       SIGNIFICANT WEATHER AND/OR OBSTRUCTIONS TO VISIBILITY.

  * THESE STATIONS DO NOT REPORT WEATHER SUCH AS RAIN...SNOW OR FOG.

NEZ001>004-019>022-054>056-031500-
NEBRASKA PANHANDLE

CITY           SKY/WX    TMP DP  RH WIND       PRES   REMARKS
SCOTTSBLUFF    SUNNY     48  39  71 W8        30.15R
ALLIANCE       SUNNY     46  40  79 NW6       30.12R
CHADRON        SUNNY     46  39  76 W7        30.13R
KIMBALL        SUNNY     47  36  66 NW12      30.17R
SIDNEY         SUNNY     46  38  73 NW12      30.15R
$$

NEZ057>060-069>072-079>082-031500-
SOUTHWEST NEBRASKA

CITY           SKY/WX    TMP DP  RH WIND       PRES   REMARKS
NORTH PLATTE   CLOUDY    43  42  97 NW9       30.11R
IMPERIAL       SUNNY     47  43  86 N9        30.11R
LEXINGTON      SUNNY     50  44  78 N5        30.07S
MCCOOK         MOSUNNY   47  43  86 N12       30.08R
OGALLALA       SUNNY     47  42  82 N7        30.12R
$$

NEZ005>010-023>029-035>040-094-031500-
NORTH CENTRAL NEBRASKA

CITY           SKY/WX    TMP DP  RH WIND       PRES   REMARKS
VALENTINE      SUNNY     44  42  93 SW6       30.10R
AINSWORTH      SUNNY     48  44  88 W6        30.09S
BROKEN BOW     SUNNY     50  44  80 N7        30.07R
O`NEILL        SUNNY     52  45  78 NW6       30.07S
ORD            SUNNY     47  42  83 CALM      30.06F
THEDFORD       SUNNY     45  45  98 NW7       30.11R
$$

NEZ041-046>049-061>064-073>077-083>087-031500-
SOUTH CENTRAL NEBRASKA

CITY           SKY/WX    TMP DP  RH WIND       PRES   REMARKS
GRAND ISLAND   SUNNY     51  41  68 CALM      30.08R
AURORA         SUNNY     53  41  64 CALM      30.07S
HASTINGS       SUNNY     52  41  66 N3        30.07R
HEBRON         SUNNY     51  46  83 CALM      30.07S
HOLDREGE       SUNNY     50  43  77 N8        30.07R
KEARNEY *      SUNNY     50  43  76 NE6       30.08R
YORK           SUNNY     55  43  62 CALM      30.07S
$$

NEZ011>018-030>034-042>045-031500-
NORTHEAST NEBRASKA

CITY           SKY/WX    TMP DP  RH WIND       PRES   REMARKS
NORFOLK        SUNNY     54  43  66 W3        30.05F
ALBION         SUNNY     51  44  77 CALM      30.07S
BLAIR          SUNNY     54  43  66 W5        30.06S
COLUMBUS *     SUNNY     52  37  58 NW5       30.08S
FREMONT        SUNNY     53  44  71 NW3       30.07S
TEKAMAH        SUNNY     51  44  77 S5        30.06S
WAYNE          SUNNY     54  45  71 W9        30.06S
$$

NEZ050>053-065>068-078-088>093-031500-
SOUTHEAST NEBRASKA

CITY           SKY/WX    TMP DP  RH WIND       PRES   REMARKS
LINCOLN        SUNNY     53  43  68 CALM      30.09R
OMAHA EPPLEY   SUNNY     53  44  71 CALM      30.07S
BEATRICE       SUNNY     51  45  79 CALM      30.08S
FALLS CITY     SUNNY     54  47  77 W6        30.08R
NEBRASKA CITY  SUNNY     55  47  75 W8        30.08S
PLATTSMOUTH    SUNNY     55  44  68 W5        30.07S
$$

NEZ044-045-051>053-067-031500-
OMAHA AREA

CITY           SKY/WX    TMP DP  RH WIND       PRES   REMARKS
OMAHA EPPLEY   SUNNY     53  44  71 CALM      30.07S
BLAIR          SUNNY     54  43  66 W5        30.06S
FREMONT        SUNNY     53  44  71 NW3       30.07S
MILLARD        SUNNY     55  45  68 CALM      30.07S
OFFUTT AFB     SUNNY     53  48  83 CALM      30.07R
PLATTSMOUTH    SUNNY     55  44  68 W5        30.07S
WAHOO          FAIR      53  44  74 CALM      30.08R
$$




USA.gov is the U.S. government's official web portal to all federal, state and local government web resources and services.